Location: Carella
(45.8167°N, 9.2667°E)
Time: 10:34:16
(UTC+00:00)

Spot 2 Rocket - Pass Details

Date: 30 March 2020
Orbit: 757 x 773 km, 98.6° (Epoch: 25 May)

Event Time Altitude Azimuth Distance (km) Brightness Sun altitude
Exits shadow 19:55:40 47° 103° (ESE) 1,013 3.7 -21.5°
Maximum altitude 19:56:29 53° 70° (ENE) 952 3.7 -21.7°
Drops below altitude 10° 20:01:28 10° 355° (N) 2,328 6.5 -22.4°
Sets 20:03:49 0° 351° (N) 3,258 7.4 -22.7°
